[[{"header":{"parameterUnit":"m.s-1","parameterCategory":2,"la1":30.2992,"la2":30.254,"lo1":-89.0895,"lo2":-89.0443,"dy":0.0025,"dx":0.0025,"nx":19,"ny":19,"refTime":"2026-05-12T09:00:00:Z","depth":"0","parameterNumber":2,"parameterNumberName":"U-component_of_CURRENTS"},"data":[0,0,0,0.1098,0.1101,0.1213,0.1213,0.1225,0.1225,0,0,0,0,0,0,0,0,0,0,0,0.1048,0.1049,0.1098,0.1101,0.1213,0.1213,0.1225,0.1225,0,0,0,0,0,0,0,0,0,0,0,0.1048,0.1049,0.105,0.1102,0.1213,0.1213,0.1225,0.117,0,0,0,0,0,0,0,0,0,0,0.1075,0.1041,0.1049,0.105,0.1102,0.1213,0.1213,0.1168,0.1173,0.1142,0,0.1169,0,0.1207,0.1224,0.1224,0,0,0,0.1085,0.1037,0.1086,0.105,0.1104,0.1213,0.1158,0.1172,0.1177,0.1147,0.117,0.1172,0.1207,0.1224,0.1224,0.1208,0.1208,0,0,0.1079,0.1046,0.1083,0.109,0.1143,0.1155,0.1162,0.1176,0.1172,0.117,0.1173,0.1207,0.1224,0.1224,0.1208,0.1208,0,0,0,0.1072,0.1042,0.1092,0.1087,0.1124,0.1158,0.1167,0.1171,0.1194,0.1173,0.1207,0.1224,0.1224,0.1208,0.1208,0.1305,0,0,0,0.1067,0.104,0.1089,0.1067,0.1125,0.1165,0.116,0.1192,0.1196,0.1207,0.1224,0.1224,0.1209,0.1208,0.1303,0.1327,0,0,0,0.1041,0.1036,0.1057,0.1066,0.1126,0.1166,0.1189,0.1194,0.1216,0.1224,0.1224,0.1209,0.1208,0.1301,0.1323,0.1423,0,0,0,0.0992,0.1023,0.1056,0.1091,0.1125,0.1172,0.119,0.1211,0.1216,0.1224,0.1209,0.1208,0.13,0.1321,0.142,0.1515,0.1539,0,0,0.1005,0.1023,0.1044,0.1078,0.1125,0.1155,0.1197,0.1214,0.1201,0.1192,0.1193,0.1304,0.1323,0.1422,0.1502,0.1527,0,0,0,0.1031,0.105,0.1066,0.1105,0.1141,0.1189,0.1208,0.124,0.1273,0.121,0.1272,0.1279,0.1341,0.1389,0.1408,0.1478,0.1207,0.1207,0.1207,0.1009,0.1043,0.1068,0.1114,0.1142,0.1205,0.1258,0.1295,0.1276,0.1312,0.1337,0.1441,0.1491,0.1507,0.1577,0.1319,0.1319,0.132,0.132,0.1031,0.1049,0.1078,0.1114,0.116,0.1198,0.1307,0.1347,0.1454,0.14,0.1457,0.1458,0.1534,0.1601,0.1326,0.1325,0.1324,0.1323,0.1323,0.1024,0.1033,0.1053,0.1106,0.116,0.1227,0.1356,0.1439,0.1514,0.1581,0.1656,0.1655,0.1738,0.163,0.163,0.1631,0.1631,0.1632,0.1632,0.1003,0.1024,0.106,0.1114,0.1147,0.1243,0.1407,0.1517,0.1693,0.1752,0.1753,0.1778,0.1536,0.1551,0.1641,0.1639,0.1638,0.1637,0.1637,0.0997,0.102,0.1076,0.1109,0.12,0.1279,0.1433,0.1682,0.1832,0.1935,0.2051,0.1861,0.1845,0.1829,0.1849,0.2011,0.2011,0.2011,0.2011,0.0987,0.1009,0.1077,0.1134,0.1213,0.1296,0.1477,0.1717,0.2041,0.2204,0.2244,0.2199,0.2181,0.218,0.2156,0.218,0.2422,0.2423,0.2423,0.098,0.1011,0.1048,0.112,0.1194,0.1298,0.1434,0.169,0.2196,0.2442,0.233,0.2313,0.2241,0.2206,0.219,0.215,0.2182,0,0]},{"header":{"parameterUnit":"m.s-1","parameterCategory":2,"la1":30.2992,"la2":30.254,"lo1":-89.0895,"lo2":-89.0443,"dy":0.0025,"dx":0.0025,"nx":19,"ny":19,"refTime":"2026-05-12T09:00:00:Z","depth":"0","parameterNumber":3,"parameterNumberName":"V-component_of_CURRENTS"},"data":[0,0,0,-0.0025,-0.0028,-0.0191,-0.0191,-0.041,-0.0411,0,0,0,0,0,0,0,0,0,0,0,0.003,0.0029,-0.0025,-0.0028,-0.019,-0.0191,-0.0409,-0.0411,0,0,0,0,0,0,0,0,0,0,0,0.003,0.0029,0.0028,-0.0029,-0.019,-0.0192,-0.0409,-0.0288,0,0,0,0,0,0,0,0,0,0,-0.0131,-0.0068,0.003,0.0028,-0.0029,-0.019,-0.0192,-0.0283,-0.0296,-0.0333,0,-0.035,0,-0.0378,-0.0425,-0.0425,0,0,0,-0.0047,-0.0057,-0.0101,0.0028,-0.0031,-0.019,-0.0123,-0.029,-0.0305,-0.0351,-0.0353,-0.0361,-0.0382,-0.0426,-0.0427,-0.0459,-0.0458,0,0,-0.0038,-0.0005,-0.0091,-0.011,-0.0063,-0.0117,-0.0127,-0.0299,-0.031,-0.0354,-0.0367,-0.0385,-0.0427,-0.0429,-0.046,-0.0459,0,0,0,0.0001,0.0002,-0.0039,-0.0101,-0.0126,-0.0121,-0.0133,-0.0303,-0.0316,-0.0369,-0.0388,-0.0428,-0.0431,-0.0461,-0.046,-0.0235,0,0,0,0.0005,0.0025,-0.0034,-0.0017,-0.0122,-0.0214,-0.0133,-0.0305,-0.0325,-0.0387,-0.0428,-0.0433,-0.0463,-0.046,-0.0244,-0.0145,0,0,0,0.0036,0.0028,0.0013,-0.0015,-0.0077,-0.0211,-0.0236,-0.031,-0.0336,-0.0425,-0.0433,-0.0463,-0.0461,-0.0251,-0.0159,-0.0098,0,0,0,0.0069,0.0047,0.0014,-0.0034,-0.0075,-0.0155,-0.0235,-0.0322,-0.0395,-0.0429,-0.0462,-0.046,-0.0254,-0.0168,-0.0106,-0.0082,-0.0044,0,0,0.0061,0.0047,0.0013,-0.002,-0.0066,-0.0134,-0.013,-0.0263,-0.0357,-0.0414,-0.0415,-0.0241,-0.016,-0.01,0.0071,0.0105,0,0,0,0.0022,0.0018,-0.0014,-0.0049,-0.0115,-0.0066,-0.0192,-0.0192,-0.0211,-0.0383,-0.025,-0.0207,-0.0176,-0.0178,-0.0151,-0.0249,-0.0447,-0.0448,-0.0448,0.0078,0.0035,0.0026,-0.0002,-0.002,-0.0031,0.0016,0.0008,-0.0131,-0.007,-0.0029,0.0163,0.0165,0.0185,0.0086,-0.0039,-0.0038,-0.0037,-0.0037,0.0107,0.0106,0.0117,0.01,0.0153,0.0184,0.0255,0.0237,0.0305,0.0183,0.0201,0.0052,0.0229,0.0111,-0.0023,-0.0025,-0.0027,-0.0028,-0.0029,0.0145,0.0154,0.0152,0.0202,0.032,0.0363,0.0537,0.0551,0.0501,0.0563,0.0451,0.0446,0.0341,0.0532,0.0533,0.0534,0.0535,0.0535,0.0536,0.0185,0.0197,0.0241,0.0315,0.0393,0.0549,0.0693,0.0752,0.0755,0.0694,0.0692,0.0407,0.0334,0.0311,0.0548,0.0545,0.0544,0.0543,0.0542,0.02,0.0219,0.0287,0.0352,0.0546,0.0719,0.0846,0.0957,0.0982,0.0979,0.0718,0.0741,0.0654,0.0629,0.061,0.091,0.091,0.091,0.091,0.0221,0.0232,0.0328,0.0443,0.0632,0.0795,0.099,0.1082,0.0983,0.0895,0.0817,0.0697,0.0686,0.0592,0.0568,0.0542,0.0818,0.0818,0.0817,0.0242,0.0269,0.0341,0.0447,0.0654,0.0864,0.1027,0.1138,0.0974,0.0801,0.0688,0.0692,0.0496,0.0486,0.0308,0.0282,0.0226,0,0]}],[{"header":{"parameterUnit":"m.s-1","parameterCategory":2,"la1":30.2992,"la2":30.254,"lo1":-89.0895,"lo2":-89.0443,"dy":0.0025,"dx":0.0025,"nx":19,"ny":19,"refTime":"2026-05-12T09:00:00:Z","depth":"2","parameterNumber":2,"parameterNumberName":"U-component_of_CURRENTS"},"data":[0,0,0,0.1234,0.1235,0.1275,0.1275,0.1168,0.1167,0,0,0,0,0,0,0,0,0,0,0,0.1187,0.1187,0.1233,0.1236,0.1275,0.1275,0.1169,0.1167,0,0,0,0,0,0,0,0,0,0,0,0.1187,0.1187,0.1187,0.1236,0.1275,0.1275,0.1169,0.117,0,0,0,0,0,0,0,0,0,0,0.1148,0.1144,0.1187,0.1187,0.1237,0.1275,0.1275,0.1171,0.117,0.1117,0,0.1126,0,0.1171,0.116,0.1159,0,0,0,0.1202,0.1146,0.1164,0.1187,0.1237,0.1275,0.1248,0.1171,0.1169,0.1114,0.1126,0.1124,0.1169,0.1159,0.1159,0.1088,0.1089,0,0,0.12,0.1182,0.1165,0.1163,0.1249,0.1247,0.1249,0.1172,0.1162,0.1125,0.1123,0.1167,0.1158,0.1158,0.1088,0.1088,0,0,0,0.1216,0.1181,0.1202,0.1165,0.1199,0.1249,0.1252,0.1165,0.1175,0.1122,0.1166,0.1158,0.1156,0.1088,0.1088,0.1193,0,0,0,0.1213,0.1194,0.1201,0.119,0.1202,0.1208,0.1246,0.1178,0.1174,0.1166,0.1158,0.1155,0.1088,0.1088,0.119,0.1212,0,0,0,0.1185,0.1191,0.1198,0.1189,0.1227,0.1211,0.1216,0.1179,0.1201,0.1159,0.1155,0.1088,0.1088,0.1187,0.1207,0.1294,0,0,0,0.1162,0.1167,0.1197,0.1201,0.1227,0.1222,0.1217,0.12,0.1164,0.1157,0.1088,0.1088,0.1186,0.1205,0.129,0.1264,0.1278,0,0,0.1156,0.1165,0.1165,0.1195,0.1189,0.1214,0.122,0.1181,0.115,0.1096,0.1096,0.1191,0.1207,0.1293,0.1274,0.1289,0,0,0,0.1155,0.1151,0.1149,0.1159,0.1167,0.1205,0.1187,0.1203,0.1202,0.1141,0.1165,0.117,0.1223,0.1198,0.1209,0.1089,0.1089,0.1089,0.1089,0.1153,0.1148,0.1137,0.1138,0.1145,0.1188,0.1225,0.1242,0.1199,0.1233,0.1239,0.1344,0.1317,0.1325,0.1229,0.1229,0.123,0.123,0.123,0.1145,0.1154,0.1141,0.1129,0.1171,0.119,0.1271,0.1299,0.1371,0.1313,0.1361,0.1285,0.1344,0.1238,0.1236,0.1235,0.1234,0.1234,0.1233,0.1162,0.1168,0.1146,0.1148,0.1191,0.1238,0.135,0.1402,0.1442,0.1495,0.1473,0.147,0.1429,0.1533,0.1533,0.1534,0.1534,0.1535,0.1535,0.1214,0.1189,0.119,0.1183,0.1211,0.1289,0.1408,0.1484,0.156,0.1561,0.1561,0.1446,0.1436,0.1444,0.1542,0.1541,0.154,0.1539,0.1539,0.1259,0.1253,0.1243,0.1252,0.1296,0.1328,0.1455,0.1571,0.1665,0.1694,0.1612,0.1607,0.1572,0.156,0.157,0.1695,0.1695,0.1695,0.1695,0.1312,0.1302,0.1288,0.1298,0.1344,0.1354,0.1409,0.1414,0.1493,0.1454,0.1463,0.1364,0.1365,0.131,0.1304,0.1304,0.1361,0.1359,0.1358,0.1352,0.1331,0.1323,0.1299,0.1338,0.1343,0.1282,0.1212,0.1225,0.1335,0.1299,0.1693,0.1571,0.1563,0.1493,0.1478,0.1484,0,0]},{"header":{"parameterUnit":"m.s-1","parameterCategory":2,"la1":30.2992,"la2":30.254,"lo1":-89.0895,"lo2":-89.0443,"dy":0.0025,"dx":0.0025,"nx":19,"ny":19,"refTime":"2026-05-12T09:00:00:Z","depth":"2","parameterNumber":3,"parameterNumberName":"V-component_of_CURRENTS"},"data":[0,0,0,0.0424,0.0423,0.0352,0.0351,0.0125,0.0123,0,0,0,0,0,0,0,0,0,0,0,0.0439,0.0439,0.0424,0.0423,0.0352,0.0351,0.0126,0.0123,0,0,0,0,0,0,0,0,0,0,0,0.0439,0.0439,0.0439,0.0423,0.0352,0.0351,0.0126,0.0209,0,0,0,0,0,0,0,0,0,0,0.0293,0.0333,0.0439,0.0439,0.0423,0.0352,0.0351,0.0214,0.0204,0.0126,0,0.0123,0,0.0126,0.0107,0.0106,0,0,0,0.0403,0.0343,0.0328,0.0439,0.0422,0.0352,0.0378,0.0209,0.0197,0.0111,0.012,0.0113,0.0122,0.0105,0.0104,-0.0069,-0.0069,0,0,0.0407,0.0414,0.0337,0.0321,0.041,0.0381,0.0376,0.0203,0.0187,0.0119,0.0108,0.0119,0.0104,0.0102,-0.0069,-0.0069,0,0,0,0.0432,0.0417,0.0408,0.0329,0.0331,0.0379,0.0374,0.0195,0.0194,0.0106,0.0116,0.0102,0.0099,-0.0069,-0.0069,0.003,0,0,0,0.0433,0.0433,0.041,0.0412,0.0336,0.0281,0.0369,0.0206,0.0187,0.0117,0.0102,0.0097,-0.0068,-0.0069,0.0027,0.0068,0,0,0,0.0441,0.0433,0.0429,0.0413,0.0393,0.0285,0.0274,0.0202,0.0193,0.0106,0.0096,-0.0068,-0.0069,0.0025,0.0063,0.0045,0,0,0,0.0444,0.0432,0.0429,0.0417,0.0394,0.0344,0.0275,0.0215,0.0148,0.0101,-0.0068,-0.0069,0.0024,0.0061,0.0044,0.0032,0.004,0,0,0.0432,0.0431,0.0425,0.0422,0.0387,0.0352,0.0305,0.0191,0.0115,-0.0025,-0.0028,0.0028,0.0063,0.0045,0.0024,0.0032,0,0,0,0.0424,0.0415,0.0406,0.0386,0.0354,0.0326,0.0232,0.0195,0.01,0.0079,-0.0003,0.0015,0.0001,-0.0011,-0.0005,-0.0069,-0.0069,-0.0069,-0.0069,0.0394,0.0392,0.0375,0.036,0.0335,0.0286,0.0262,0.0186,0.0107,0.0092,0.0073,0.0097,0.0086,0.009,0.0047,0.0047,0.0048,0.0048,0.0048,0.0371,0.0367,0.0363,0.035,0.0334,0.03,0.0257,0.0231,0.0168,0.0125,0.0106,0.0067,0.0103,0.0055,0.0054,0.0053,0.0052,0.0052,0.0051,0.0353,0.0354,0.0352,0.0348,0.0352,0.0338,0.0352,0.0314,0.024,0.0243,0.0162,0.016,0.0151,0.0215,0.0215,0.0215,0.0215,0.0215,0.0215,0.0341,0.0339,0.0347,0.0355,0.0377,0.0406,0.0405,0.0383,0.031,0.0252,0.0251,0.0151,0.0146,0.0157,0.0217,0.0217,0.0216,0.0216,0.0216,0.0329,0.0337,0.0352,0.0371,0.0422,0.048,0.0469,0.0429,0.0376,0.0332,0.0234,0.0232,0.0186,0.018,0.0189,0.0254,0.0254,0.0254,0.0254,0.0332,0.0332,0.0369,0.0408,0.046,0.0512,0.0547,0.0465,0.034,0.0233,0.0234,0.0213,0.0212,0.0165,0.0158,0.0166,0.0224,0.0224,0.0224,0.0336,0.0348,0.0381,0.0417,0.0483,0.0554,0.06,0.0538,0.0318,0.0222,0.0222,0.0253,0.0223,0.0221,0.0145,0.0137,0.0147,0,0]}],[{"header":{"parameterUnit":"m.s-1","parameterCategory":2,"la1":30.2992,"la2":30.254,"lo1":-89.0895,"lo2":-89.0443,"dy":0.0025,"dx":0.0025,"nx":19,"ny":19,"refTime":"2026-05-12T09:00:00:Z","depth":"4","parameterNumber":2,"parameterNumberName":"U-component_of_CURRENTS"},"data":[0,0,0,0.0433,0.0434,0.0555,0.0556,0.0555,0.0554,0,0,0,0,0,0,0,0,0,0,0,0.0416,0.0416,0.0432,0.0434,0.0555,0.0556,0.0555,0.0554,0,0,0,0,0,0,0,0,0,0,0,0.0415,0.0416,0.0417,0.0435,0.0555,0.0556,0.0556,0.051,0,0,0,0,0,0,0,0,0,0,0.0415,0.0437,0.0416,0.0417,0.0435,0.0555,0.0556,0.051,0.0513,0.0446,0,0.0469,0,0.0482,0.0548,0.0547,0,0,0,0.0466,0.0436,0.043,0.0417,0.0436,0.0555,0.051,0.0513,0.0516,0.0448,0.0469,0.047,0.0482,0.0547,0.0547,0.0428,0.0427,0,0,0.0459,0.0469,0.0429,0.0432,0.0468,0.0505,0.0513,0.0517,0.0538,0.0469,0.047,0.0482,0.0546,0.0546,0.0428,0.0427,0,0,0,0.0419,0.0465,0.0465,0.0432,0.045,0.0508,0.0517,0.054,0.053,0.047,0.0482,0.0546,0.0545,0.0429,0.0428,0.0468,0,0,0,0.0416,0.0438,0.0462,0.0474,0.0451,0.0522,0.0539,0.0531,0.0531,0.0482,0.0546,0.0544,0.0429,0.0428,0.0468,0.0476,0,0,0,0.041,0.0438,0.0445,0.0474,0.0505,0.0523,0.0518,0.0533,0.0534,0.0547,0.0544,0.043,0.0428,0.0468,0.0477,0.0492,0,0,0,0.0425,0.0414,0.0447,0.045,0.0504,0.0512,0.0519,0.0543,0.0556,0.0545,0.0429,0.0428,0.0469,0.0477,0.0492,0.0446,0,0,0,0.04,0.0413,0.041,0.0438,0.045,0.0498,0.0494,0.0516,0.0504,0.0423,0.0423,0.0468,0.0477,0.0492,0.0364,0,0,0,0,0.0392,0.0402,0.041,0.044,0.045,0.0481,0.0498,0.0482,0.0469,0.0499,0.0429,0.0431,0.0442,0.0411,0.0421,0.0421,0.0422,0.0422,0.0422,0.0428,0.0418,0.0424,0.0423,0.044,0.0458,0.0462,0.0436,0.0432,0.0421,0.0436,0.0433,0.0398,0.0406,0.0407,0.0407,0.0407,0.0407,0.0407,0.0403,0.0416,0.0427,0.0434,0.046,0.0475,0.0425,0.0429,0.0403,0.0403,0.0412,0.0418,0.041,0.0409,0.0409,0.0409,0.0408,0.0408,0.0408,0.0444,0.044,0.0443,0.0446,0.0493,0.0504,0.0472,0.0473,0.0443,0.0447,0.0435,0.0451,0.0481,0.0482,0.0482,0.0482,0.0482,0.0482,0.0482,0.0491,0.0466,0.0462,0.0469,0.0504,0.0528,0.0527,0.0479,0.0474,0.0455,0.0481,0.0458,0.0456,0.0483,0.0484,0.0484,0.0483,0.0483,0.0483,0.0523,0.0513,0.0484,0.0493,0.0491,0.0481,0.0491,0.0456,0.0422,0.0386,0.0446,0.0448,0.0429,0.0428,0.0454,0.0446,0.0446,0.0445,0,0.058,0.0552,0.0526,0.0482,0.0437,0.0443,0.0367,0.0338,0.0369,0.0411,0.0384,0.0454,0.0455,0.0434,0.0431,0.0461,0,0,0,0.0605,0.0595,0.0585,0.0504,0.0439,0.036,0.0349,0.0362,0.039,0.0321,0.0431,0.0435,0.0348,0.0488,0.0463,0.046,0.0504,0,0]},{"header":{"parameterUnit":"m.s-1","parameterCategory":2,"la1":30.2992,"la2":30.254,"lo1":-89.0895,"lo2":-89.0443,"dy":0.0025,"dx":0.0025,"nx":19,"ny":19,"refTime":"2026-05-12T09:00:00:Z","depth":"4","parameterNumber":3,"parameterNumberName":"V-component_of_CURRENTS"},"data":[0,0,0,0.0214,0.0213,0.0179,0.0179,0.0149,0.0149,0,0,0,0,0,0,0,0,0,0,0,0.024,0.024,0.0214,0.0213,0.0179,0.0179,0.0149,0.0149,0,0,0,0,0,0,0,0,0,0,0,0.024,0.024,0.024,0.0213,0.0179,0.0178,0.0149,0.0171,0,0,0,0,0,0,0,0,0,0,0.0202,0.0227,0.024,0.024,0.0212,0.0179,0.0178,0.0172,0.017,0.0169,0,0.0175,0,0.0156,0.0147,0.0147,0,0,0,0.0212,0.0229,0.0216,0.024,0.0212,0.0179,0.0194,0.017,0.0168,0.0166,0.0175,0.0173,0.0155,0.0147,0.0147,0.0097,0.0097,0,0,0.0213,0.0234,0.0217,0.0214,0.0219,0.0195,0.0193,0.0169,0.0175,0.0174,0.0172,0.0155,0.0147,0.0147,0.0097,0.0097,0,0,0,0.022,0.0235,0.0222,0.0216,0.0206,0.0194,0.0191,0.0177,0.0172,0.0171,0.0155,0.0147,0.0146,0.0098,0.0097,0.0055,0,0,0,0.0221,0.0238,0.0224,0.0235,0.0207,0.0189,0.02,0.0174,0.017,0.0155,0.0147,0.0146,0.0098,0.0098,0.0057,0.0027,0,0,0,0.0238,0.024,0.024,0.0236,0.022,0.0188,0.0182,0.0173,0.016,0.0147,0.0146,0.0099,0.0098,0.0059,0.0031,0.0008,0,0,0,0.0254,0.0264,0.0241,0.0246,0.022,0.0174,0.0182,0.0171,0.0164,0.0147,0.0098,0.0097,0.006,0.0033,0.001,0.0086,0,0,0,0.0272,0.0267,0.0267,0.0245,0.019,0.0177,0.0119,0.0132,0.0145,0.0108,0.0107,0.0057,0.0031,0.0008,0.0033,0,0,0,0,0.0275,0.0274,0.0255,0.0222,0.0178,0.0108,0.0106,0.0089,0.0071,0.0135,0.005,0.0035,0.0022,0.0073,0.0093,0.0093,0.0093,0.0093,0.0093,0.0284,0.026,0.0228,0.018,0.0139,0.0069,0.0025,-0.0,0.0031,0.0017,-0.0003,-0.0057,-0.0006,-0.0001,-0.0002,-0.0002,-0.0002,-0.0002,-0.0002,0.027,0.0246,0.0194,0.0164,0.0075,0.0023,-0.0066,-0.0058,-0.0111,-0.0073,-0.0082,0.0019,-0.0006,-0.0006,-0.0005,-0.0004,-0.0004,-0.0004,-0.0004,0.025,0.0237,0.0227,0.0165,0.0076,-0.0002,-0.0068,-0.0118,-0.0143,-0.0165,-0.0082,-0.0091,-0.0082,-0.0146,-0.0146,-0.0146,-0.0147,-0.0147,-0.0147,0.0239,0.0224,0.0217,0.0157,0.012,0.0042,-0.0062,-0.0091,-0.0136,-0.0134,-0.0161,-0.0106,-0.0101,-0.0091,-0.0151,-0.015,-0.015,-0.0149,-0.0149,0.024,0.0246,0.0238,0.0222,0.0142,0.0077,-0.0005,-0.0068,-0.0101,-0.0121,-0.012,-0.0121,-0.01,-0.0095,-0.0083,-0.0144,-0.0143,-0.0142,0,0.0248,0.0245,0.0254,0.0237,0.0182,0.0094,0.0063,0.0009,-0.0065,-0.0069,-0.0101,-0.0099,-0.0099,-0.0071,-0.0066,-0.0049,0,0,0,0.0255,0.0257,0.0267,0.0252,0.0197,0.0102,0.0043,0.0031,-0.0061,-0.0059,-0.0124,-0.0128,-0.008,-0.0162,-0.0131,-0.0125,-0.0107,0,0]}]]